This is the latest recevied weather packets stored in our database for station/object IU2EVW-3. If no packets are shown the sender has not sent any weather packets the latest 10 day(s).
| Time | Temp. | Humidity | Pressure | Rain* | Wind** | Luminosity | Snow |
|---|---|---|---|---|---|---|---|
| 1777413689 | 18.89° C | 59% | 1015.7 hPa | - | - | - | - |
| 1777412488 | 18.89° C | 60% | 1015.4 hPa | - | - | - | - |
| 1777411286 | 18.33° C | 62% | 1015.2 hPa | - | - | - | - |
| 1777410085 | 19.44° C | 58% | 1015.2 hPa | - | - | - | - |
| 1777408884 | 19.44° C | 53% | 1014.9 hPa | - | - | - | - |
| 1777407683 | 19.44° C | 51% | 1014.9 hPa | - | - | - | - |
| 1777406482 | 20° C | 51% | 1014.8 hPa | - | - | - | - |
| 1777405281 | 20° C | 52% | 1014.8 hPa | - | - | - | - |
| 1777404079 | 20° C | 52% | 1014.5 hPa | - | - | - | - |
| 1777402878 | 20° C | 52% | 1014.4 hPa | - | - | - | - |
| 1777401677 | 20.56° C | 48% | 1014.1 hPa | - | - | - | - |
| 1777400476 | 21.11° C | 40% | 1014 hPa | - | - | - | - |
| 1777399274 | 21.67° C | 39% | 1013.9 hPa | - | - | - | - |
| 1777398073 | 22.22° C | 39% | 1013.8 hPa | - | - | - | - |
| 1777396872 | 22.78° C | 37% | 1013.8 hPa | - | - | - | - |
| 1777395671 | 22.78° C | 37% | 1013.8 hPa | - | - | - | - |
| 1777394470 | 23.89° C | 36% | 1013.8 hPa | - | - | - | - |
| 1777393268 | 23.89° C | 36% | 1013.9 hPa | - | - | - | - |
| 1777392067 | 24.44° C | 36% | 1013.8 hPa | - | - | - | - |
| 1777390866 | 25° C | 35% | 1013.8 hPa | - | - | - | - |
| 1777389665 | 24.44° C | 35% | 1013.9 hPa | - | - | - | - |
| 1777388463 | 24.44° C | 34% | 1014 hPa | - | - | - | - |
| 1777387262 | 25° C | 34% | 1014.1 hPa | - | - | - | - |
| 1777386061 | 25.56° C | 34% | 1014.3 hPa | - | - | - | - |
| 1777384860 | 25° C | 34% | 1014.5 hPa | - | - | - | - |
* Rain since midnight (hover to see other rain measurements)
** Current wind speed in m/s (hover to see current wind gust speed)